Weather History for PAHO - August, 2014

Change the Weather History Date:

Tuesday, August 12, 2014

  Actual Average Record
Temperature  
Mean Temperature 60 °F -  
Max Temperature 63 °F 61 °F 71 °F (1950)
Min Temperature 57 °F 48 °F 34 °F (1969)
Degree Days  
Heating Degree Days 6    
Growing Degree Days 10 (Base 50)    
Moisture  
Dew Point 50 °F    
Average Humidity 70    
Maximum Humidity 78    
Minimum Humidity 57    
Precipitation  
Precipitation 0.08 in - - ()
Sea Level Pressure  
Sea Level Pressure 29.57 in    
Wind  
Wind Speed 5 mph (ENE)    
Max Wind Speed 9 mph    
Max Gust Speed -    
Visibility 10 miles    
Events Rain    
Averages and records for this station are not official NWS values.
T = Trace of Precipitation, MM = Missing Value Source: NWS Daily Summary

Daily Weather History Graph

Daily Weather History Graph

Search for Another Location

Airport or City:

Trip Planner

Search our weather history database for the weather conditions in past years. The results will help you decide how hot, cold, wet, or windy it might be!

Date:

Astronomy

Aug. 12, 2014 Rise Set
Actual Time 6:15 AM AKDT 10:04 PM AKDT
Civil Twilight 5:23 AM AKDT 10:56 PM AKDT
Nautical Twilight 4:04 AM AKDT 12:13 AM AKDT
Astronomical Twilight 2:43 AM AKDT 1:38 AM AKDT
Moon 10:19 PM AKDT (8/12) 9:35 AM AKDT (8/12)
Length of Visible Light 17h 32m
Length of Day
15h 49m
Waning Gibbous, 94% of the Moon is Illuminated
Aug 12
Waning Gibbous
Aug 17
Last Quarter
Aug 25
New
Sep 2
First Quarter
Sep 8
Full

Hourly Weather History & Observations

Time (AKDT) Temp. Dew Point Humidity Pressure Visibility Wind Dir Wind Speed Gust Speed Precip Events Conditions
12:53 AM 60.1 °F 45.0 °F 57% 29.58 in 10.0 mi East 9.2 mph - N/A   Mostly Cloudy
1:53 AM 60.1 °F 46.0 °F 60% 29.58 in 10.0 mi ESE 8.1 mph - N/A   Overcast
3:53 AM 60.1 °F 46.0 °F 60% 29.58 in 10.0 mi Calm Calm - N/A   Overcast
4:53 AM 57.9 °F 48.0 °F 70% 29.59 in 10.0 mi Calm Calm - N/A   Overcast
5:53 AM 57.0 °F 50.0 °F 77% 29.59 in 10.0 mi Calm Calm - 0.02 in Rain Light Rain
6:53 AM 57.0 °F 50.0 °F 77% 29.59 in 10.0 mi Calm Calm - 0.00 in   Overcast
7:53 AM 57.9 °F 50.0 °F 75% 29.59 in 10.0 mi Calm Calm - N/A   Mostly Cloudy
9:53 AM 59.0 °F 51.1 °F 75% 29.60 in 10.0 mi Variable 5.8 mph - N/A   Overcast
10:53 AM 60.1 °F 48.9 °F 67% 29.60 in 10.0 mi East 8.1 mph - N/A   Overcast
11:53 AM 60.1 °F 50.0 °F 69% 29.60 in 10.0 mi ESE 4.6 mph - N/A   Overcast
12:53 PM 61.0 °F 50.0 °F 67% 29.57 in 10.0 mi North 3.5 mph - N/A   Overcast
1:53 PM 62.1 °F 50.0 °F 65% 29.58 in 10.0 mi South 4.6 mph - N/A   Mostly Cloudy
2:53 PM 61.0 °F 48.0 °F 62% 29.57 in 10.0 mi Variable 5.8 mph - N/A   Mostly Cloudy
3:53 PM 60.1 °F 50.0 °F 69% 29.55 in 10.0 mi SE 4.6 mph - 0.01 in Rain Light Rain
4:53 PM 60.1 °F 51.1 °F 72% 29.55 in 10.0 mi NE 5.8 mph - 0.04 in Rain Light Rain
5:53 PM 59.0 °F 52.0 °F 78% 29.54 in 10.0 mi ENE 6.9 mph - 0.01 in Rain Light Rain
6:53 PM 60.1 °F 50.0 °F 69% 29.53 in 10.0 mi ENE 8.1 mph - 0.00 in Rain Light Rain
7:53 PM 60.1 °F 51.1 °F 72% 29.53 in 10.0 mi North 3.5 mph - 0.00 in   Overcast
8:53 PM 60.1 °F 51.1 °F 72% 29.53 in 10.0 mi Calm Calm - N/A   Mostly Cloudy
9:53 PM 57.9 °F 51.1 °F 78% 29.53 in 10.0 mi NNE 3.5 mph - N/A   Mostly Cloudy
10:53 PM 57.0 °F 50.0 °F 77% 29.54 in 10.0 mi North 5.8 mph - N/A   Overcast
11:53 PM 57.9 °F 50.0 °F 75% 29.54 in 10.0 mi Calm Calm - N/A   Overcast